Sioux Falls, SD

7:09 AM CST on December 08, 2019 (GMT -0600)
Foss

Weather History for KFSD - November, 2019

Change the Weather History Date:

Friday, November 15, 2019

  Actual Average Record
Temperature  
Mean Temperature 38 °F 33 °F  
Max Temperature 57 °F 43 °F 75 °F (1953)
Min Temperature 20 °F 23 °F 0 °F (1932)
Degree Days  
Heating Degree Days 26 32  
Month to date heating degree days 531 420  
Since 1 July heating degree days 1203 1160  
Cooling Degree Days 0 0  
Month to date cooling degree days 0 0  
Year to date cooling degree days 830 690  
Moisture  
Dew Point 28 °F    
Average Humidity 65    
Maximum Humidity 92    
Minimum Humidity 42    
Precipitation  
Precipitation 0.00 in 0.05 in 0.78 in (1996)
Month to date precipitation 0.38 0.69  
Year to date precipitation 37.33 25.02  
Snow  
Snow 0.00 in 0.30 in 6.50 in (2014)
Month to date snowfall 1.9 2.8  
Since 1 July snowfall 2.8 4.1  
Since 1 September snowfall 2.8 4.1  
Snow Depth 0.00 in    
Sea Level Pressure  
Sea Level Pressure 30.21 in    
Wind  
Wind Speed 6 mph ()    
Max Wind Speed 21 mph    
Max Gust Speed 29 mph    
Visibility 9.9 miles    
Events      
T = Trace of Precipitation, MM = Missing Value Source: Averaged Metar Reports

Daily Weather History Graph

Daily Weather History Graph

Search for Another Location

Airport or City:

Astronomy

Nov. 15, 2019 Rise Set
Actual Time 7:20 AM CST 5:01 PM CST
Civil Twilight 6:49 AM CST 5:32 PM CST
Nautical Twilight 6:15 AM CST 6:07 PM CST
Astronomical Twilight 5:41 AM CST 6:41 PM CST
Moon 7:35 PM CST (11/15) 10:21 AM CST (11/15)
Length of Visible Light 10h 43m
Length of Day
9h 41m
Waning Gibbous, 90% of the Moon is Illuminated
Nov 15
Waning Gibbous
Nov 19
Last Quarter
Nov 26
New
Dec 4
First Quarter
Dec 11
Full

Hourly Weather History & Observations

Time (CST) Temp. Windchill Dew Point Humidity Pressure Visibility Wind Dir Wind Speed Gust Speed Precip Events Conditions
12:56 AM 28.0 °F 24.2 °F 23.0 °F 81% 30.30 in 10.0 mi SSW 3.5 mph - N/A   Clear
1:56 AM 25.0 °F - 19.9 °F 81% 30.30 in 9.0 mi Calm Calm - N/A   Clear
2:56 AM 21.9 °F - 19.0 °F 89% 30.29 in 9.0 mi Calm Calm - N/A   Clear
5:56 AM 21.9 °F 15.7 °F 18.0 °F 85% 30.27 in 10.0 mi NNE 4.6 mph - N/A   Scattered Clouds
6:56 AM 25.0 °F - 21.0 °F 85% 30.27 in 10.0 mi Calm Calm - N/A   Mostly Cloudy
7:56 AM 26.1 °F 20.5 °F 21.9 °F 84% 30.27 in 10.0 mi East 4.6 mph - N/A   Scattered Clouds
8:56 AM 33.1 °F 28.7 °F 27.0 °F 78% 30.27 in 9.0 mi East 4.6 mph - N/A   Scattered Clouds
9:56 AM 37.9 °F 33.5 °F 28.9 °F 70% 30.26 in 10.0 mi SE 5.8 mph - N/A   Mostly Cloudy
10:56 AM 42.1 °F 38.4 °F 30.0 °F 62% 30.25 in 10.0 mi ESE 5.8 mph - N/A   Mostly Cloudy
11:56 AM 45.0 °F 40.6 °F 30.9 °F 58% 30.23 in 10.0 mi SSE 8.1 mph - N/A   Mostly Cloudy
12:56 PM 50.0 °F - 32.0 °F 50% 30.21 in 10.0 mi ESE 8.1 mph - N/A   Scattered Clouds
1:56 PM 55.0 °F - 34.0 °F 45% 30.17 in 10.0 mi SE 11.5 mph - N/A   Scattered Clouds
2:56 PM 55.9 °F - 33.1 °F 42% 30.16 in 10.0 mi SSE 11.5 mph - N/A   Partly Cloudy
3:56 PM 54.0 °F - 33.1 °F 45% 30.15 in 10.0 mi SSE 9.2 mph - N/A   Partly Cloudy
4:56 PM 50.0 °F - 32.0 °F 50% 30.15 in 10.0 mi SSE 12.7 mph - N/A   Partly Cloudy
5:56 PM 48.0 °F - 32.0 °F 54% 30.16 in 10.0 mi SE 13.8 mph - N/A   Partly Cloudy
6:56 PM 45.0 °F 38.9 °F 32.0 °F 60% 30.17 in 10.0 mi SE 12.7 mph - N/A   Scattered Clouds
7:56 PM 44.1 °F 37.4 °F 32.0 °F 63% 30.16 in 10.0 mi SSE 13.8 mph - N/A   Partly Cloudy
8:56 PM 45.0 °F 37.6 °F 30.9 °F 58% 30.15 in 10.0 mi SSE 17.3 mph 28.8 mph N/A   Partly Cloudy
9:56 PM 44.1 °F 36.5 °F 30.9 °F 60% 30.14 in 10.0 mi SSE 17.3 mph 27.6 mph N/A   Partly Cloudy
10:56 PM 44.1 °F 36.5 °F 30.9 °F 60% 30.12 in 10.0 mi SSE 17.3 mph 28.8 mph N/A   Partly Cloudy
11:56 PM 43.0 °F 35.7 °F 30.0 °F 60% 30.12 in 10.0 mi South 15.0 mph 28.8 mph N/A   Partly Cloudy